{"data":{"norad_id":48388,"epoch":"2026-05-24T23:19:48.879264Z","epoch_age_seconds":84276,"freshness":"FRESH","line1":"1 48388U 21038AM  26144.97209351  .00004527  00000+0  15758-3 0  9994","line2":"2 48388  53.1604 350.5378 0001215  78.2652 281.8486 15.31692491278940","mean_motion":15.31692491,"eccentricity":0.0001215,"inclination_deg":53.1604,"raan_deg":350.5378,"arg_perigee_deg":78.2652,"mean_anomaly_deg":281.8486,"bstar":0.00015758,"rev_number":27894,"period_min":94.013648853228,"perigee_km":469.93023798078,"apogee_km":471.59452052994,"semimajor_km":6848.8993792554,"source":"CELESTRAK","updated_at":"2026-05-25T13:38:16.690677Z"}}